Location: ???? ???? ?????
(31.2680°N, 31.7283°E)
Time: 19:56:49
(UTC+00:00)

Cosmos 1869 - Pass Details

Date: 13 July 2020
Orbit: 520 x 563 km, 82.5° (Epoch: 05 August)

Event Time Altitude Azimuth Distance (km) Brightness Sun altitude
Rises 19:34:15 0° 346° (NNW) 2,729 7.9 -26.7°
Reaches altitude 10° 19:36:28 10° 341° (NNW) 1,837 6.9 -27.0°
Enters shadow 19:39:41 42° 298° (WNW) 800 4.4 -27.4°
